Tracking 29892 objects as of 21-Nov-2024
HD Live streaming from Space Station
objects crossing your sky now

PVCC

Track PVCC now!
10-day predictions


NORAD ID: 58025
Int'l Code: 2023-155K
Perigee: 552.0 km
Apogee: 558.1 km
Inclination: 97.6 °
Period: 95.6 minutes
Semi major axis: 6926 km
RCS: Unknown
Launch date: October 9, 2023
Source: (BEL)
Launch site: FRENCH GUIANA (FRGUI)
Your satellite tracking list
Your tracking list is empty




NASA's NSSDC Master Catalog

Two Line Element Set (TLE):
1 58025U 23155K   24326.15433342  .00011041  00000-0  75745-3 0  9996
2 58025  97.6345  34.9757 0004467 303.2544  56.8254 15.06171082 61427
Source of the keplerian elements: AFSPC